Bivongi Pazzano

Bivongi Pazzano, si dividono le strade con Franco

Il Bivongi Pazzano ufficializza il divorzio dal responsabile tecnico Ernesto Franco, il quale non sarà alla guida dei biancazzurri nella prossima stagione. Così la squadra si congeda dal tecnico: "Al mister va un profondo ringraziamento...

Bivongi Pazzano, con il Capo Vaticano la decide Franco [VIDEO]

Bottino pieno per il Bivongi Pazzano, che batte di misura il Capo Vaticano e sale a quota 16 punti. Decide la partita un calcio di rigore realizzato da Franco Ernesto. Una partita giocata prevalentemente...

Il Bivongi Pazzano fa bottino pieno in casa del Caulonia

Riceviamo e pubblichiamo Prestazione titanica del Bivongi Pazzano che espugna il Dicone di Caulonia con una partita ben interpretata da tutti i giocatori al cospetto di una squadra costruita con progetti ambiziosi. Nel primo tempo...

Prima Categoria, le designazioni arbitrali del sabato

Ecco le designazioni arbitrali relative alle gare di Prima Categoria in programma sabato: PRIMA CATEGORIA GIR. C Caulonia-Bivongi Pazzano: Margherita E. Pittella di Crotone PRIMA CATEGORIA GIR. D Bianco-Bovese: Giovanni Graziano Condito di Catanzaro Palizzi-Scillese: Simone Barbaro di Locri Pro Pellaro-Saint Michel: Alessandro Russo di Cosenza  

Bivongi Pazzano, tris al Badolato e bottino pieno [VIDEO]

Vittoria casalinga per il Bivongi Pazzano, che cala il tris al Badolato e si porta così a quota 10 punti. Il match si sblocca al 27' del primo tempo, quando Taverniti porta in vantaggio...
DataCasaRisultatiTrasfertaOra
2020-05-10 15:30:0010/05/20- 15:30:0015:30
2020-05-03 15:30:0003/05/20- 15:30:0015:30
2020-04-26 15:30:0026/04/20- 15:30:0015:30
2020-04-19 15:30:0019/04/20- 15:30:0015:30
2020-03-29 15:30:0029/03/20- 15:30:0015:30
2020-03-22 14:30:0022/03/20- 14:30:0014:30
2020-03-15 14:30:0015/03/20- 14:30:0014:30
2020-03-08 14:30:0008/03/20- 14:30:0014:30
2020-03-01 14:30:0001/03/201 - 0 14:30:0014:30
2020-02-23 14:30:0023/02/201 - 1 14:30:0014:30
2020-02-09 14:30:0009/02/202 - 5 14:30:0014:30
2020-02-02 14:30:0002/02/201 - 2 14:30:0014:30
2020-01-26 14:30:0026/01/203 - 1 14:30:0014:30
2020-01-19 14:30:0019/01/204 - 1 14:30:0014:30
2020-01-12 14:30:0012/01/202 - 2 14:30:0014:30
2019-12-22 14:30:0022/12/191 - 1 14:30:0014:30
2019-12-15 14:30:0015/12/191 - 0 14:30:0014:30
2019-12-07 14:30:0007/12/191 - 3 14:30:0014:30
2019-12-01 14:30:0001/12/193 - 0 14:30:0014:30
2019-11-24 14:30:0024/11/192 - 6 14:30:0014:30
2019-11-17 14:30:0017/11/191 - 1 14:30:0014:30
2019-11-10 14:30:0010/11/196 - 1 14:30:0014:30
2019-11-03 14:30:0003/11/191 - 1 14:30:0014:30
2019-10-27 14:30:0027/10/190 - 0 14:30:0014:30
2019-10-13 15:30:0013/10/191 - 2 15:30:0015:30
2019-10-05 15:30:0005/10/190 - 0 15:30:0015:30
2019-09-29 15:30:0029/09/196 - 0 15:30:0015:30
2019-09-22 15:30:0022/09/195 - 0 15:30:0015:30
2019-05-05 16:00:0005/05/193 - 2 16:00:0016:00
2019-04-28 16:00:0028/04/194 - 2 16:00:0016:00
2019-04-07 16:00:0007/04/192 - 1 16:00:0016:00
2019-03-31 16:00:0031/03/190 - 2 16:00:0016:00
2019-03-24 15:00:0024/03/191 - 1 15:00:0015:00
2019-03-17 15:00:0017/03/191 - 1 15:00:0015:00
2019-03-10 15:00:0010/03/192 - 0 15:00:0015:00
2019-03-03 15:00:0003/03/191 - 0 15:00:0015:00
2019-02-24 14:30:0024/02/194 - 3 14:30:0014:30
2019-02-17 14:30:0017/02/192 - 2 14:30:0014:30
2019-02-10 14:30:0010/02/194 - 0 14:30:0014:30
2019-02-03 14:30:0003/02/191 - 1 14:30:0014:30
2019-01-27 14:30:0027/01/193 - 0 14:30:0014:30
2019-01-20 14:30:0020/01/191 - 0 14:30:0014:30
2019-01-13 14:30:0013/01/194 - 1 14:30:0014:30
2018-12-23 14:30:0023/12/182 - 2 14:30:0014:30
2018-12-16 14:30:0016/12/180 - 1 14:30:0014:30
2018-12-09 14:30:0009/12/187 - 1 14:30:0014:30
2018-12-02 14:30:0002/12/183 - 0 14:30:0014:30
2018-11-25 14:30:0025/11/185 - 2 14:30:0014:30
2018-11-18 14:30:0018/11/182 - 2 14:30:0014:30
2018-11-11 14:30:0011/11/181 - 0 14:30:0014:30
2018-11-04 14:30:0004/11/180 - 0 14:30:0014:30
2018-10-28 14:30:0028/10/180 - 0 14:30:0014:30
2018-10-21 15:30:0021/10/180 - 2 15:30:0015:30
2018-10-14 15:30:0014/10/181 - 2 15:30:0015:30
2018-10-07 15:30:0007/10/182 - 1 15:30:0015:30
2018-09-30 15:30:0030/09/180 - 5 15:30:0015:30
2018-09-23 15:30:0023/09/181 - 1 15:30:0015:30
2018-09-16 15:30:0016/09/180 - 2 15:30:0015:30